| time (UTC) | temp F | wind direction | speed MPH | gust MPH | rain 1hr in | rain 24hr in | rain mn in | humidity % | barometer mb |
| 20260505021537 | 67 | 168 | 9.0 | 17.0 | 0.00 | 0.00 | 0.00 | 65 | 1007.1 |
| 20260505020041 | 68 | 165 | 13.0 | 16.0 | 0.00 | 0.00 | 0.00 | 60 | 1007.0 |
| 20260505014542 | 68 | 149 | 11.0 | 19.0 | 0.00 | 0.00 | 0.00 | 64 | 1007.2 |
| 20260505013037 | 67 | 186 | 8.0 | 13.0 | 0.00 | 0.00 | 0.00 | 66 | 1007.3 |
| 20260505011539 | 68 | 190 | 5.0 | 9.0 | 0.00 | 0.00 | 0.00 | 65 | 1007.5 |
| 20260505010045 | 67 | 155 | 7.0 | 13.0 | 0.00 | 0.00 | 0.00 | 68 | 1007.5 |
| 20260505004538 | 68 | 184 | 10.0 | 16.0 | 0.00 | 0.00 | 0.00 | 65 | 1007.5 |
| 20260505003038 | 68 | 141 | 6.0 | 10.0 | 0.00 | 0.00 | 0.00 | 67 | 1007.6 |
| 20260505001538 | 69 | 138 | 5.0 | 8.0 | 0.00 | 0.00 | 0.00 | 64 | 1007.7 |
| 20260505000048 | 70 | 188 | 5.0 | 9.0 | 0.00 | 0.00 | 0.00 | 64 | 1007.7 |
| 20260504234536 | 71 | 199 | 7.0 | 13.0 | 0.00 | 0.00 | 0.00 | 61 | 1007.8 |
| 20260504233037 | 72 | 142 | 6.0 | 10.0 | 0.00 | 0.00 | 0.00 | 60 | 1007.8 |
| 20260504231538 | 72 | 121 | 4.0 | 8.0 | 0.00 | 0.00 | 0.00 | 58 | 1008.0 |
| 20260504230037 | 73 | 153 | 4.0 | 8.0 | 0.00 | 0.00 | 0.00 | 58 | 1008.1 |
| 20260504224537 | 72 | 188 | 5.0 | 7.0 | 0.00 | 0.00 | 0.00 | 55 | 1008.2 |
| 20260504223038 | 72 | 144 | 4.0 | 8.0 | 0.00 | 0.00 | 0.00 | 59 | 1008.2 |
| 20260504221540 | 72 | 155 | 6.0 | 9.0 | 0.00 | 0.00 | 0.00 | 59 | 1008.5 |
| 20260504220046 | 71 | 127 | 5.0 | 10.0 | 0.00 | 0.00 | 0.00 | 62 | 1008.5 |
| 20260504214538 | 71 | 194 | 6.0 | 10.0 | 0.00 | 0.00 | 0.00 | 62 | 1008.6 |
| 20260504213045 | 71 | 187 | 5.0 | 8.0 | 0.00 | 0.00 | 0.00 | 61 | 1008.7 |
| 20260504211542 | 70 | 163 | 5.0 | 10.0 | 0.00 | 0.00 | 0.00 | 60 | 1008.8 |
| 20260504210039 | 70 | 169 | 6.0 | 9.0 | 0.00 | 0.00 | 0.00 | 64 | 1008.9 |
| 20260504204542 | 69 | 172 | 6.0 | 11.0 | 0.00 | 0.00 | 0.00 | 65 | 1009.0 |
| 20260504203037 | 69 | 161 | 6.0 | 11.0 | 0.00 | 0.00 | 0.00 | 62 | 1009.0 |
| 20260504201538 | 69 | 171 | 6.0 | 10.0 | 0.00 | 0.00 | 0.00 | 67 | 1009.1 |
| 20260504200037 | 69 | 153 | 4.0 | 8.0 | 0.00 | 0.00 | 0.00 | 67 | 1009.1 |
| 20260504194538 | 68 | 182 | 4.0 | 9.0 | 0.00 | 0.00 | 0.00 | 70 | 1009.2 |
| 20260504193053 | 67 | 167 | 4.0 | 9.0 | 0.00 | 0.00 | 0.00 | 71 | 1009.2 |
| 20260504191537 | 68 | 175 | 4.0 | 8.0 | 0.00 | 0.00 | 0.00 | 71 | 1009.1 |
| 20260504190041 | 67 | 173 | 4.0 | 9.0 | 0.00 | 0.00 | 0.00 | 74 | 1009.2 |
| 20260504184537 | 67 | 140 | 5.0 | 9.0 | 0.00 | 0.00 | 0.00 | 74 | 1009.3 |
| 20260504183049 | 67 | 167 | 5.0 | 10.0 | 0.00 | 0.00 | 0.00 | 72 | 1009.2 |
| 20260504181538 | 67 | 145 | 4.0 | 9.0 | 0.00 | 0.00 | 0.00 | 71 | 1009.2 |
| 20260504180058 | 66 | 182 | 4.0 | 10.0 | 0.00 | 0.00 | 0.00 | 75 | 1009.2 |
| 20260504174538 | 64 | 193 | 5.0 | 8.0 | 0.00 | 0.00 | 0.00 | 79 | 1009.1 |
| 20260504173039 | 63 | 175 | 2.0 | 5.0 | 0.00 | 0.00 | 0.00 | 78 | 1009.3 |
| 20260504171538 | 62 | 150 | 2.0 | 4.0 | 0.00 | 0.00 | 0.00 | 76 | 1009.1 |
| 20260504081542 | 57 | 0 | 0.0 | 1.0 | 0.00 | 0.00 | 0.00 | 82 | 1008.1 |
| 20260504044537 | 60 | 42 | 0.0 | 1.0 | 0.00 | 0.00 | 0.00 | 72 | 1008.2 |
| 20260504043043 | 60 | 74 | 0.0 | 1.0 | 0.00 | 0.00 | 0.00 | 74 | 1008.2 |
| 20260504041535 | 61 | 78 | 0.0 | 1.0 | 0.00 | 0.00 | 0.00 | 72 | 1008.3 |
| 20260504040040 | 61 | 355 | 0.0 | 1.0 | 0.00 | 0.00 | 0.00 | 72 | 1008.2 |
| 20260504034542 | 61 | 0 | 0.0 | 0.0 | 0.00 | 0.00 | 0.00 | 65 | 1008.3 |
| 20260504033041 | 62 | 312 | 0.0 | 1.0 | 0.00 | 0.00 | 0.00 | 64 | 1008.1 |
| 20260504031536 | 64 | 0 | 0.0 | 1.0 | 0.00 | 0.00 | 0.00 | 61 | 1008.1 |
| 20260504030042 | 65 | 267 | 1.0 | 2.0 | 0.00 | 0.00 | 0.00 | 58 | 1008.1 |
| 20260504024539 | 65 | 259 | 1.0 | 3.0 | 0.00 | 0.00 | 0.00 | 58 | 1008.3 |
| 20260504023037 | 66 | 249 | 1.0 | 6.0 | 0.00 | 0.00 | 0.00 | 58 | 1008.2 |